This is the latest recevied weather packets stored in our database for station/object IZ1UQG-1. If no packets are shown the sender has not sent any weather packets the latest 10 day(s).
| Time | Temp. | Humidity | Pressure | Rain* | Wind** | Luminosity | Snow |
|---|---|---|---|---|---|---|---|
| 1778051034 | 13.33° C | 85% | 1008.1 hPa | 208.03 mm | - | - | - |
| 1778050734 | 13.33° C | 84% | 1008.3 hPa | 178.05 mm | - | - | - |
| 1778050434 | 13.33° C | 84% | 1008.3 hPa | 186.94 mm | - | - | - |
| 1778050134 | 13.33° C | 84% | 1008.3 hPa | 170.69 mm | - | - | - |
| 1778049834 | 13.33° C | 84% | 1008.3 hPa | 171.45 mm | - | - | - |
| 1778049534 | 13.33° C | 84% | 1008.1 hPa | 154.18 mm | - | - | - |
| 1778049234 | 13.33° C | 84% | 1008.2 hPa | 161.04 mm | - | - | - |
| 1778048934 | 13.33° C | 84% | 1008.4 hPa | 165.1 mm | - | - | - |
| 1778048634 | 13.33° C | 84% | 1008.2 hPa | 158.5 mm | - | - | - |
| 1778048334 | 13.33° C | 84% | 1008.2 hPa | 153.67 mm | - | - | - |
| 1778048034 | 13.33° C | 84% | 1008.1 hPa | 156.21 mm | - | - | - |
| 1778047734 | 13.33° C | 83% | 1008.2 hPa | 148.59 mm | - | - | - |
| 1778047434 | 13.33° C | 83% | 1008.3 hPa | 154.69 mm | - | - | - |
| 1778047134 | 13.33° C | 83% | 1008.6 hPa | 155.19 mm | - | - | - |
| 1778046834 | 13.33° C | 83% | 1008.6 hPa | 184.15 mm | - | - | - |
| 1778046534 | 13.33° C | 83% | 1008.6 hPa | 182.63 mm | - | - | - |
| 1778046234 | 13.33° C | 83% | 1008.6 hPa | 196.09 mm | - | - | - |
| 1778045934 | 13.33° C | 83% | 1008.7 hPa | 207.01 mm | - | - | - |
| 1778045634 | 13.33° C | 83% | 1008.9 hPa | 222 mm | - | - | - |
| 1778045334 | 13.33° C | 83% | 1008.8 hPa | 205.99 mm | - | - | - |
| 1778045034 | 13.33° C | 82% | 1008.7 hPa | 207.01 mm | - | - | - |
| 1778044734 | 13.33° C | 82% | 1009.1 hPa | 205.49 mm | - | - | - |
| 1778044434 | 13.33° C | 82% | 1009 hPa | 229.87 mm | - | - | - |
| 1778044134 | 13.33° C | 82% | 1009.1 hPa | 220.47 mm | - | - | - |
| 1778043834 | 13.33° C | 82% | 1009 hPa | 239.78 mm | - | - | - |
* Rain latest hour (hover to see other rain measurements)
** Current wind speed in m/s (hover to see current wind gust speed)